Погода в Больших Ключах

Россия / Республика Татарстан     55°58′58″N   48°48′13″E
темп.,
°C
ветер,
м/с
пор.,
м/с
влажн.,
%
обл.,
%
осадки,
мм/ч
давл.,
гПа
погр.,
м
23 апреля, пт
пт2300:00+5ююв229334 0.0 102348
03:00+4ю22935 0.0 102410
06:00+5ююв228811 0.0 102570
09:00+10ююв33695 0.0 1025523
12:00+13ююв335253 0.0 10241603
15:00+13юв5455100 0.1 10231024
18:00+12юв476663 0.1 1022282
21:00+8в3679100 0.1 102196
24 апреля, сб
сб2400:00+7в3585100 0.0 102098
03:00+6всв3789100 0.0 1018144
06:00+6в4990100 0.0 1016298
09:00+9вюв4680100 0.0 1015666
12:00+7вюв4587100 0.3 1014959
15:00+7в4792100 1.1 1012482
18:00+6вюв4893100 0.1 1010457
21:00+6юв499695 0.1 1008429
25 апреля, вс
вс2500:00+6вюв51294100 0.1 1005502
03:00+6юв61297100 2.7 1002560
06:00+4зюз61197100 1.9 1003810
09:00+6зюз81178100 3.1 10041161
12:00+7юз8117383 0.4 10051225
15:00+6з71475100 1.1 10081485
18:00+7зюз712595 0.4 1009840
21:00+4юз6146973 0.5 1011514
26 апреля, пн
пн2600:00+3юз614775 0.0 1012574
03:00+2юз614790 0.0 1013478
06:00+3ююз5137891 0.0 1014478
09:00+7юз81461100 0.0 10131515
12:00+8юз7126398 0.1 10131590
15:00+9юз7115995 0.1 10131627
18:00+8зюз476899 0.1 1013416
21:00+6в017595 0.1 101212
27 апреля, вт
вт2700:00+5ююв117963 0.1 101111
03:00+3в2286100 0.1 101019
06:00+4в3482100 0.0 1009174
09:00+9ю465889 0.0 1007708
12:00+11ююз7950100 0.4 10051839
15:00+4зсз5108752 1.1 1008632
18:00+7зюз36685 0.0 1007891
21:00+3зюз398485 0.1 1008173